Weather Roundup
Issued by NWS

Home | Current Version | Previous Version | Text Only | Print | Product List | Glossary On
Versions: 1 2 3 4 5 6 7 8 9 10 11 12 13 14 15 16 17 18 19 20 21 22 23 24 25 26 27 28 29 30 31 32 33 34 35 36 37 38 39 40 41 42 43 44 45 46 47 48 49 50
000
NZUS93 KARX 211310
HRRWXR

CURRENT HOURLY OBSERVATIONS ACROSS
MUCH OF THE UPPER MISSISSIPPI VALLEY
NATIONAL WEATHER SERVICE LA CROSSE WI
800 AM CDT TUE APR 21 2015


...SOUTHEAST MINNESOTA...


CITY           SKY/WX    TMP DP  RH WIND       PRES   REMARKS
ROCHESTER      CLOUDY    34  28  79 W25G32    29.56R WCI  21
ROCHESTER/MAYO CLOUDY    35  29  80 W25G33    29.55R WCI  22
WINONA         CLOUDY    36  30  80 W16G25    29.54S WCI  26
AUSTIN         CLOUDY    36  27  69 W23G32    29.60R WCI  24
ALBERT LEA     PTSUNNY   36  28  75 W15G22    29.61S WCI  26
DODGE CENTER   CLOUDY    36  28  75 W21G31    29.57R WCI  24
PRESTON        CLOUDY    34  28  78 W25G37    29.57S WCI  21
OWATONNA       CLOUDY    34  27  75 W24G35    29.60R WCI  21
FARIBAULT      CLOUDY    36  27  69 W22G30    29.60R WCI  24
$$

...ELSEWHERE IN MINNESOTA...


CITY           SKY/WX    TMP DP  RH WIND       PRES   REMARKS
MINNEAPOLIS    CLOUDY    36  24  62 W16G35    29.55S WCI  26
INTNL FALLS    LGT SNOW  27  23  85 N14G22    29.45R FOG     WCI  16
DULUTH         FLURRIES  32  26  78 NW14G22   29.38R WCI  22
RED WING       CLOUDY    36  23  60 NW13G22   29.54R WCI  27
REDWOOD FALLS  CLOUDY    34  26  72 W21       29.67R WCI  22
MANKATO        CLOUDY    36  21  55 NW23G33   29.63S WCI  24
WORTHINGTON    PTSUNNY   34  23  64 NW22G28   29.72R WCI  22
FAIRMONT       SUNNY     36  25  64 NW26G36   29.67R WCI  23
$$

...SOUTHWEST WISCONSIN...


CITY           SKY/WX    TMP DP  RH WIND       PRES   REMARKS
LA CROSSE      LGT RAIN  38  31  76 W14       29.54R WCI  30
PRAIRIE DU CHI CLOUDY    39  27  60 W18G26    29.59S WCI  30
BOSCOBEL       LGT RAIN  40  29  64 SW13G22   29.57S WCI  32
LONE ROCK      CLOUDY    39  26  59 W18       29.55R WCI  30
PLATTEVILLE    CLOUDY    39  30  68 W28G36    29.59S WCI  28
FORT MC COY    CLOUDY    36  27  70 W14G22    29.52S WCI  27
CAMP DOUGLAS   LGT SNOW  34  34 100 W13       29.50R FOG     WCI  25
VIROQUA        CLOUDY    32  32 100 NW7       29.53R WCI  26
WIS DELLS      CLOUDY    36  28  73 W12G24    29.51R WCI  28
$$

...ELSEWHERE IN WISCONSIN...


CITY           SKY/WX    TMP DP  RH WIND       PRES   REMARKS
MILWAUKEE      PTSUNNY   40  28  62 W16G23    29.52S WCI  31
MADISON        CLOUDY    39  25  57 W16G29    29.53R WCI  30
GREEN BAY      CLOUDY    38  31  76 W16G25    29.43R WCI  29
EAU CLAIRE     FLURRIES  34  27  75 W20G28    29.49R WCI  22
BLACK RVR FLS  LGT SNOW  34  31  89 W8        29.51R WCI  27
MEDFORD        LGT SNOW  31  28  90 W12G21    29.40S WCI  22
WAUSAU         CLOUDY    33  29  85 W20G25    29.39S WCI  21
WIS RAPIDS     LGT SNOW  34  29  82 W14G22    29.47R WCI  25
MARSHFIELD     LGT SNOW  33  29  85 W16G24    29.44R FOG     WCI  23
RICE LAKE      LGT SNOW  32  28  86 W13G20    29.48R WCI  22
$$

...NORTHEAST IOWA...


CITY           SKY/WX    TMP DP  RH WIND       PRES   REMARKS
DECORAH        CLOUDY    37  27  65 W10G24    29.58R WCI  30
MASON CITY     SUNNY     37  29  72 W20       29.66R WCI  27
CHARLES CITY   PTSUNNY   37  30  75 W15G23    29.64S WCI  28
OELWEIN        PTSUNNY   37  30  75 W18       29.65R WCI  27
$$

...ELSEWHERE IN IOWA...


CITY           SKY/WX    TMP DP  RH WIND       PRES   REMARKS
DES MOINES     MOSUNNY   40  23  50 W9        29.76S WCI  34
IOWA CITY      SUNNY     40  30  67 W15       29.73R WCI  32
FORT DODGE     SUNNY     37  27  65 W16G22    29.72R WCI  28
$$

...NORTHERN ILLINOIS...


CITY           SKY/WX    TMP DP  RH WIND       PRES   REMARKS
CHICAGO-OHARE  MOSUNNY   41  29  62 W20G28    29.60R
CHICAGO-MIDWAY MOSUNNY   44  30  57 W20G31    29.63R
MOLINE         SUNNY     43  28  55 W16G26    29.70R
ROCKFORD       PTSUNNY   41  29  62 W18G25    29.62S
PEORIA         SUNNY     45  27  49 W12       29.75R
$$

NOTE: "FAIR" INDICATES FEW OR NO CLOUDS BELOW 12,000 FEET WITH NO
SIGNIFICANT WEATHER AND/OR OBSTRUCTIONS TO VISIBILITY. WIND
SPEEDS ARE IN MILES-PER-HOUR.



USA.gov is the U.S. government's official web portal to all federal, state and local government web resources and services.